Wind_Speed
57 59 62 66 69 71 73 75 76 75 72 67 66 66 64 60 56 52 49 49 49 49 45 42 45 46 43 38 37 37 36 38 40 39 36 35 36 36 36 36 36 37 40 43
57 60 64 69 72 72 73 73 70 68 65 61 61 61 60 58 55 51 48 47 46 44 38 33 34 37 38 34 33 34 36 36 34 30 29 32 34 36 37 36 36 38 40 42
61 65 70 76 72 75 75 70 65 64 63 61 59 59 58 56 52 49 46 44 40 35 32 28 26 28 31 32 33 34 34 31 28 28 28 30 32 34 35 36 37 39 41 42
68 72 78 74 71 73 71 65 56 56 56 55 56 57 55 54 54 50 46 42 37 32 28 24 21 20 22 25 29 32 32 30 27 24 25 27 29 32 34 35 37 38 40 42
75 78 82 70 66 65 66 60 52 52 51 53 58 62 59 54 54 52 48 43 38 33 30 26 23 20 19 22 27 31 31 29 26 25 27 29 31 34 36 38 39 39 41 43
77 79 76 62 60 59 59 53 48 48 53 59 65 69 64 54 50 47 46 43 38 34 32 29 26 23 22 25 27 29 29 28 27 27 28 30 34 37 39 41 42 41 42 44
77 74 64 56 55 54 53 51 45 50 57 62 65 64 61 54 46 41 39 38 34 31 29 28 26 25 24 25 28 30 29 28 27 27 29 32 37 40 41 42 42 43 45 46
74 67 56 53 51 49 48 46 48 52 57 61 62 59 55 49 42 35 33 32 30 27 25 23 22 23 24 25 27 28 28 28 27 28 30 33 37 39 41 43 45 46 47 48
67 57 51 47 44 43 42 42 45 50 54 58 58 54 50 42 32 25 24 25 25 23 22 21 21 23 25 26 26 27 27 27 27 30 32 35 37 39 40 41 43 44 46 46
58 51 48 42 38 36 36 38 42 46 48 51 52 49 44 36 26 18 14 17 19 21 23 25 26 27 28 28 28 28 28 29 30 33 35 37 40 42 43 43 42 42 43 43
51 47 41 35 33 30 30 34 39 41 42 44 45 44 41 35 27 19 14 13 16 21 25 29 30 30 29 29 30 31 31 32 34 35 38 40 43 44 44 43 41 41 41 42
45 41 38 34 31 28 30 33 36 37 37 39 39 39 37 35 30 24 19 17 17 19 22 25 26 27 26 27 29 32 34 35 36 38 41 43 44 44 44 42 41 40 40 41
41 38 36 34 33 31 31 32 32 33 35 36 34 34 33 31 28 25 22 20 19 19 20 20 21 20 21 23 27 31 34 37 39 41 43 44 44 44 44 43 42 42 42 43
37 36 34 33 30 27 27 28 29 31 32 32 31 31 31 30 29 27 24 23 22 22 22 21 21 21 22 24 28 31 34 38 41 43 44 44 45 45 45 45 46 47 48 49
33 34 34 31 28 25 25 28 30 30 29 29 29 30 32 32 32 31 30 29 28 28 28 28 28 28 29 30 32 34 37 39 42 43 44 45 46 47 47 48 49 51 54 56
31 32 32 30 27 25 25 27 29 29 29 29 29 30 32 34 34 34 33 32 31 30 30 30 30 31 32 33 34 36 38 40 42 44 46 48 49 50 52 54 56 58 59 61
32 30 27 26 25 25 26 27 29 30 30 30 30 32 35 36 35 34 33 32 31 30 29 29 29 30 31 32 34 37 39 42 44 47 49 51 53 56 58 60 62 63 65 67
32 30 28 26 25 25 26 28 29 30 30 30 33 36 38 38 37 35 34 32 32 31 31 31 32 33 34 36 38 41 44 46 49 52 54 57 59 62 64 66 68 70 72 74
30 28 26 26 25 26 27 28 29 30 30 33 36 39 40 39 38 37 35 34 33 33 34 35 37 39 41 43 45 48 50 53 55 58 61 64 66 69 71 74 75 77 79 80
27 25 25 25 25 27 28 28 29 30 33 36 39 40 40 40 38 37 37 36 37 38 39 40 42 44 47 50 52 55 58 60 63 66 69 71 73 75 77 78 79 80 80 80
24 24 25 26 27 27 27 27 29 32 35 38 40 42 42 41 40 39 39 40 41 42 44 46 48 51 54 57 60 63 66 68 70 72 74 75 76 76 76 75 74 73 72 70
23 24 26 27 27 27 27 29 32 35 38 40 41 43 43 42 41 41 41 43 44 47 49 53 56 59 62 65 67 69 71 72 73 73 73 72 71 69 67 65 64 62 61 60
23 24 26 27 27 27 29 31 34 37 39 40 42 43 42 42 42 42 44 46 49 52 56 60 63 66 68 70 71 72 72 71 70 68 66 64 62 60 57 55 53 50 48 46
22 24 25 27 27 29 31 34 36 38 39 41 42 42 42 42 43 45 48 52 56 59 63 65 67 69 70 70 69 68 66 63 61 58 54 51 48 46 43 40 37 35 33 32
21 23 25 26 28 31 33 35 37 38 40 41 42 42 43 44 46 50 54 58 62 64 66 67 68 67 66 64 61 58 54 50 46 43 40 37 35 34 32 30 28 26 25 24
20 22 24 27 29 32 34 35 37 39 40 41 42 42 44 47 51 55 59 62 65 66 66 65 63 60 56 52 48 44 41 39 36 34 33 32 32 30 29 27 25 24 23 22
20 23 25 28 30 33 34 36 38 40 41 42 42 44 47 51 56 60 62 64 64 64 61 56 52 47 43 40 38 36 35 34 34 34 33 33 33 32 30 29 28 27 26 25
Wind_Direction
308 309 308 308 308 309 308 307 306 307 306 307 304 304 306 307 306 304 300 295 291 288 282 271 264 263 268 277 277 273 264 259 262 269 273 271 266 261 259 258 257 259 262 263
307 307 308 308 309 310 309 308 307 307 308 308 307 307 309 309 309 307 303 299 296 294 289 277 268 265 268 276 272 265 260 261 268 276 277 272 266 261 259 259 260 262 264 264
308 309 310 311 314 312 311 312 313 312 312 312 310 309 311 311 309 305 303 302 300 299 295 287 275 266 266 271 267 262 262 266 273 277 276 274 270 265 263 264 266 266 266 267
312 312 312 315 314 312 312 315 315 311 312 312 311 311 313 310 305 302 299 298 295 293 288 280 270 262 264 266 262 259 261 267 271 275 281 282 278 273 270 271 272 272 272 273
315 314 312 318 314 313 314 318 315 313 314 314 313 311 313 307 299 295 292 290 289 286 283 274 263 256 254 257 258 261 265 267 268 276 284 286 285 280 275 274 275 276 276 276
315 313 318 321 315 314 314 319 319 318 318 319 318 315 316 309 299 291 285 283 282 280 279 276 269 259 253 253 256 260 263 264 269 276 285 290 290 287 282 278 276 277 279 279
314 316 322 318 316 317 319 322 324 322 322 323 323 321 318 313 305 293 283 279 279 278 277 277 272 260 256 255 258 260 261 264 270 279 288 294 294 291 285 280 278 278 280 282
315 318 320 316 318 320 319 322 324 325 328 329 330 327 323 317 308 295 282 274 276 276 277 278 277 268 260 258 259 259 260 265 273 283 290 295 297 297 291 284 280 280 282 284
316 318 315 317 318 317 318 322 325 329 332 335 338 336 333 328 319 303 286 275 274 275 275 278 284 283 272 263 259 259 263 270 276 282 287 293 297 298 295 290 286 283 284 284
316 316 315 318 316 314 320 325 328 330 334 339 345 348 349 347 343 330 306 285 279 276 276 279 284 287 280 268 261 261 266 272 276 281 287 293 297 298 296 292 289 286 284 282
315 315 314 317 317 316 323 327 328 330 333 338 347 355 1 4 3 359 344 315 293 284 282 284 285 285 279 268 262 261 264 270 277 284 288 293 297 299 296 292 289 286 284 282
317 317 319 321 321 323 325 326 327 331 332 335 342 352 359 5 7 4 355 340 322 308 300 295 292 289 280 268 264 264 267 273 281 286 290 294 296 296 294 291 289 287 285 283
318 319 321 324 326 324 325 326 328 332 334 335 339 345 352 356 358 358 354 346 336 326 318 311 304 296 285 274 272 272 274 279 284 288 292 294 294 292 291 289 287 286 284 282
321 322 321 321 321 321 326 331 332 334 336 337 340 343 345 346 346 343 339 333 327 322 317 312 307 300 293 287 283 282 283 286 289 291 292 292 291 290 289 288 288 287 286 284
322 321 320 320 320 321 326 330 331 331 332 334 336 339 340 339 338 335 331 326 321 316 313 310 306 302 298 295 292 291 290 291 292 292 291 290 290 289 289 288 288 288 287 287
319 319 319 319 318 318 321 323 324 325 324 326 330 333 335 335 333 331 327 324 320 316 313 311 308 304 302 299 297 295 294 293 292 291 291 290 290 290 290 289 289 288 287 287
318 319 319 320 319 317 317 318 320 321 322 324 329 333 335 335 334 332 329 326 324 322 320 317 314 311 308 305 302 299 297 295 294 293 293 293 292 292 291 290 290 289 288 288
320 322 323 324 323 319 316 317 319 321 323 326 329 332 334 335 336 335 332 329 326 324 322 319 316 313 310 307 305 303 301 300 299 298 297 295 294 293 292 291 291 290 289 289
318 320 323 324 324 322 319 319 320 322 324 326 329 331 332 333 333 333 332 330 327 324 322 319 317 315 313 311 309 307 305 303 301 300 298 297 295 294 293 293 292 291 290 289
317 319 323 324 322 320 320 320 322 325 326 327 329 331 332 332 331 329 328 326 324 323 321 320 318 316 314 312 310 308 306 305 303 301 300 298 297 295 294 293 292 291 291 290
315 319 324 324 321 319 320 322 325 327 327 328 330 332 331 330 329 327 326 325 324 323 322 320 319 317 314 313 311 309 307 306 304 302 300 299 298 297 296 295 294 294 294 293
313 317 323 325 323 321 322 324 326 327 327 329 330 330 330 329 328 327 326 325 324 323 322 321 319 317 315 314 312 310 309 307 305 304 303 302 302 301 300 300 299 298 297 295
311 315 320 323 323 323 325 326 327 327 328 329 329 329 329 329 329 328 326 325 324 323 322 321 320 318 316 315 314 312 311 310 309 309 309 308 307 307 306 305 304 304 303 302
310 315 318 321 323 325 327 328 328 328 328 328 328 329 330 330 328 327 326 325 325 324 323 322 320 319 318 318 317 316 316 316 316 316 316 316 316 317 317 318 318 318 318 318
312 316 318 320 323 326 328 329 329 329 328 329 329 330 330 328 327 327 327 326 326 325 324 323 322 322 323 323 323 324 325 327 328 330 332 334 336 337 338 340 341 341 340 339
314 317 319 322 325 328 329 329 330 330 330 330 330 329 328 327 328 328 328 327 326 326 326 327 327 328 330 332 335 339 342 345 349 352 355 357 359 359 1 2 1 360 357 354
316 319 321 324 326 327 328 329 330 331 331 331 330 329 329 329 329 329 329 328 329 329 331 333 336 339 344 350 355 0 5 9 12 15 17 17 18 18 17 17 15 13 11 8
Height
5692 5683 5673 5664 5656 5649 5638 5622 5609 5599 5588 5578 5566 5557 5552 5547 5541 5536 5530 5524 5519 5514 5511 5510 5511 5514 5516 5515 5514 5514 5513 5513 5513 5513 5514 5514 5515 5516 5517 5518 5519 5521 5522 5523
5684 5674 5663 5652 5642 5633 5621 5609 5595 5582 5573 5563 5552 5544 5538 5532 5525 5520 5515 5510 5505 5500 5497 5497 5498 5500 5503 5503 5503 5503 5503 5503 5504 5504 5504 5504 5504 5505 5507 5508 5509 5509 5510 5510
5669 5661 5651 5636 5623 5613 5605 5594 5579 5564 5556 5547 5539 5531 5526 5519 5512 5506 5502 5498 5494 5490 5487 5486 5486 5488 5490 5491 5491 5492 5493 5493 5494 5494 5494 5494 5494 5495 5496 5497 5498 5497 5497 5498
5652 5646 5635 5625 5606 5593 5585 5582 5568 5553 5545 5537 5527 5519 5516 5508 5497 5492 5490 5487 5483 5480 5478 5478 5477 5476 5477 5479 5480 5481 5482 5484 5485 5485 5485 5484 5484 5484 5485 5486 5486 5486 5485 5485
5633 5623 5615 5610 5592 5579 5569 5570 5558 5545 5536 5527 5516 5506 5506 5498 5484 5478 5475 5474 5472 5470 5469 5468 5468 5467 5468 5469 5470 5471 5473 5474 5475 5476 5476 5475 5475 5475 5475 5474 5474 5474 5473 5472
5615 5601 5595 5591 5578 5566 5556 5555 5548 5535 5525 5515 5502 5487 5482 5477 5468 5462 5460 5459 5460 5459 5459 5459 5459 5459 5459 5459 5461 5462 5464 5465 5466 5466 5466 5465 5464 5463 5462 5462 5461 5460 5460 5459
5600 5588 5582 5572 5562 5553 5546 5541 5535 5526 5515 5503 5490 5475 5462 5455 5449 5446 5445 5446 5448 5449 5449 5450 5450 5450 5451 5452 5453 5454 5456 5456 5457 5456 5456 5454 5453 5452 5450 5449 5448 5447 5446 5445
5590 5582 5576 5561 5552 5545 5538 5531 5524 5516 5506 5492 5479 5464 5451 5440 5432 5430 5431 5434 5437 5440 5441 5442 5442 5442 5443 5444 5445 5446 5446 5447 5447 5446 5445 5444 5442 5440 5438 5436 5435 5433 5432 5430
5579 5574 5563 5555 5546 5538 5531 5525 5517 5509 5498 5485 5471 5456 5441 5430 5423 5421 5423 5426 5430 5433 5435 5436 5435 5435 5435 5435 5436 5437 5437 5437 5437 5437 5436 5434 5432 5429 5427 5424 5421 5419 5416 5414
5569 5563 5554 5548 5540 5533 5526 5518 5511 5503 5493 5482 5468 5453 5439 5428 5422 5420 5421 5423 5426 5429 5430 5430 5429 5428 5427 5426 5427 5428 5428 5428 5428 5427 5425 5423 5420 5417 5414 5410 5407 5404 5402 5400
5559 5551 5546 5540 5533 5526 5520 5513 5506 5499 5490 5480 5469 5457 5444 5434 5427 5424 5424 5424 5425 5425 5424 5423 5421 5420 5418 5418 5418 5419 5419 5419 5418 5416 5414 5411 5408 5404 5401 5397 5393 5391 5389 5387
5549 5542 5535 5529 5523 5518 5513 5507 5501 5494 5487 5478 5469 5460 5450 5441 5434 5429 5426 5424 5422 5420 5418 5416 5413 5411 5410 5410 5410 5411 5410 5409 5407 5405 5402 5399 5395 5392 5388 5384 5381 5378 5375 5373
5539 5534 5528 5522 5517 5512 5507 5502 5496 5489 5482 5475 5467 5459 5451 5444 5438 5432 5428 5424 5420 5417 5414 5410 5408 5405 5404 5404 5403 5402 5401 5399 5396 5393 5389 5385 5382 5378 5375 5371 5368 5365 5362 5359
5531 5526 5521 5517 5512 5508 5503 5497 5491 5484 5478 5471 5464 5457 5450 5444 5438 5432 5427 5423 5418 5414 5410 5407 5404 5401 5399 5397 5395 5393 5390 5387 5384 5380 5376 5372 5368 5365 5361 5357 5353 5349 5346 5343
5527 5520 5514 5509 5505 5501 5497 5492 5487 5481 5475 5469 5462 5455 5449 5442 5436 5430 5424 5418 5413 5409 5404 5401 5397 5394 5391 5388 5385 5382 5378 5375 5371 5367 5363 5359 5355 5350 5346 5342 5338 5334 5329 5325
5521 5515 5509 5504 5500 5496 5492 5487 5482 5477 5471 5465 5459 5452 5445 5439 5432 5425 5419 5413 5408 5403 5398 5394 5390 5386 5382 5378 5375 5371 5367 5363 5359 5355 5350 5345 5340 5335 5330 5325 5320 5316 5311 5306
5514 5510 5505 5500 5495 5491 5487 5482 5478 5472 5467 5461 5455 5448 5441 5434 5427 5420 5414 5408 5402 5397 5392 5387 5383 5378 5374 5370 5366 5361 5357 5352 5346 5341 5335 5329 5323 5317 5312 5306 5301 5295 5289 5283
5508 5503 5499 5494 5490 5486 5482 5478 5473 5467 5462 5456 5450 5443 5436 5429 5422 5415 5409 5403 5397 5392 5387 5382 5376 5371 5366 5362 5356 5350 5344 5338 5331 5325 5318 5311 5305 5298 5291 5284 5277 5271 5264 5257
5502 5498 5494 5489 5485 5481 5477 5473 5468 5463 5457 5451 5445 5438 5430 5423 5416 5410 5404 5397 5392 5386 5381 5375 5369 5363 5356 5350 5344 5337 5329 5322 5315 5307 5299 5291 5283 5274 5266 5258 5249 5241 5234 5226
5497 5493 5489 5485 5481 5477 5472 5468 5463 5458 5452 5446 5439 5432 5424 5417 5411 5404 5398 5392 5386 5379 5373 5367 5360 5353 5345 5337 5329 5321 5313 5304 5295 5285 5276 5266 5256 5247 5237 5228 5219 5211 5203 5195
5492 5489 5485 5480 5476 5472 5468 5463 5458 5452 5446 5440 5433 5426 5418 5411 5404 5398 5391 5384 5378 5370 5363 5356 5348 5341 5332 5322 5313 5303 5293 5282 5271 5260 5249 5238 5228 5218 5208 5198 5189 5180 5172 5165
5487 5484 5480 5476 5472 5467 5463 5458 5453 5447 5441 5434 5427 5420 5412 5405 5398 5391 5384 5377 5369 5361 5353 5344 5334 5325 5315 5304 5293 5281 5269 5257 5244 5232 5220 5209 5199 5189 5180 5171 5162 5155 5147 5140
5483 5480 5476 5472 5468 5463 5458 5453 5447 5441 5435 5428 5421 5413 5406 5398 5391 5384 5377 5369 5360 5351 5341 5331 5320 5308 5296 5283 5271 5257 5244 5231 5219 5207 5195 5184 5174 5165 5157 5148 5140 5133 5126 5120
5478 5475 5472 5468 5464 5459 5453 5448 5441 5435 5429 5422 5415 5407 5399 5392 5384 5377 5368 5359 5349 5339 5328 5316 5303 5290 5276 5263 5249 5235 5222 5210 5198 5186 5176 5166 5157 5148 5140 5133 5126 5119 5113 5107
5474 5471 5467 5464 5459 5454 5448 5442 5436 5429 5423 5416 5408 5401 5393 5385 5377 5368 5359 5348 5337 5326 5313 5300 5286 5272 5258 5244 5231 5218 5206 5194 5184 5174 5165 5156 5148 5140 5133 5126 5119 5113 5108 5102
5470 5467 5463 5459 5454 5449 5443 5437 5430 5424 5417 5410 5402 5394 5387 5378 5369 5359 5348 5337 5325 5312 5298 5285 5271 5257 5244 5231 5220 5208 5198 5188 5179 5170 5162 5154 5146 5138 5131 5124 5118 5113 5107 5101
5466 5463 5459 5454 5449 5444 5438 5431 5425 5418 5411 5404 5396 5388 5380 5370 5360 5349 5338 5325 5312 5299 5286 5273 5260 5248 5237 5226 5216 5207 5197 5189 5180 5172 5164 5156 5148 5141 5133 5127 5120 5114 5108 5102